This is the latest recevied weather packets stored in our database for station/object W4WYD-2. If no packets are shown the sender has not sent any weather packets the latest 10 day(s).
| Time | Temp. | Humidity | Pressure | Rain* | Wind** | Luminosity | Snow |
|---|---|---|---|---|---|---|---|
| 1787579840 | 21.67° C | 82% | 1018.7 hPa | 0 mm | - | 275 W/m² | - |
| 1787579535 | 21.67° C | 82% | 1018.8 hPa | 0 mm | - | 46 W/m² | - |
| 1787579230 | 21.11° C | 83% | 1018.8 hPa | 0 mm | - | 78 W/m² | - |
| 1787578925 | 20.56° C | 88% | 1018.6 hPa | 0 mm | - | 184 W/m² | - |
| 1787578621 | 20° C | 94% | 1018.7 hPa | 0 mm | - | 99 W/m² | - |
| 1787578321 | 19.44° C | 98% | 1018.8 hPa | 0 mm | - | 35 W/m² | - |
| 1787578016 | 18.89° C | 99% | 1018.8 hPa | 0 mm | - | 45 W/m² | - |
| 1787577711 | 18.89° C | 99% | 1018.9 hPa | 0 mm | - | 43 W/m² | - |
| 1787577407 | 18.33° C | 99% | 1018.8 hPa | 0 mm | - | 38 W/m² | - |
| 1787577103 | 18.33° C | 99% | 1018.9 hPa | 0 mm | - | 36 W/m² | - |
| 1787576799 | 18.33° C | 99% | 1018.7 hPa | 0 mm | - | 36 W/m² | - |
| 1787576494 | 18.33° C | 99% | 1018.6 hPa | 0 mm | - | 35 W/m² | - |
| 1787576190 | 17.78° C | 99% | 1018.7 hPa | 0 mm | - | 33 W/m² | - |
| 1787575885 | 17.78° C | 99% | 1018.5 hPa | 0 mm | - | 30 W/m² | - |
| 1787575581 | 17.22° C | 99% | 1018.6 hPa | 0 mm | - | 28 W/m² | - |
| 1787575275 | 17.22° C | 99% | 1018.7 hPa | 0 mm | - | 29 W/m² | - |
| 1787574970 | 16.67° C | 99% | 1018.6 hPa | 0 mm | - | 29 W/m² | - |
| 1787574666 | 16.67° C | 99% | 1018.7 hPa | 0 mm | - | 29 W/m² | - |
| 1787574361 | 16.67° C | 99% | 1018.5 hPa | 0 mm | - | 27 W/m² | - |
| 1787574060 | 16.11° C | 99% | 1018.8 hPa | 0 mm | - | 26 W/m² | - |
| 1787573756 | 16.11° C | 99% | 1018.4 hPa | 0 mm | - | 25 W/m² | - |
| 1787573455 | 16.11° C | 99% | 1018.6 hPa | 0 mm | - | 23 W/m² | - |
| 1787573152 | 16.11° C | 99% | 1018.3 hPa | 0 mm | - | 22 W/m² | - |
| 1787572848 | 15.56° C | 99% | 1018.3 hPa | 0 mm | - | 20 W/m² | - |
| 1787572543 | 15.56° C | 99% | 1018.3 hPa | 0 mm | - | 19 W/m² | - |
* Rain latest hour (hover to see other rain measurements)
** Current wind speed in m/s (hover to see current wind gust speed)